SHIJIAN-21 (SJ-21)

Last updated on Sun Oct 06 2024 00:02:42 GMT+0000 (Coordinated Universal Time)

1 49330U 21094A 24279.76039594 -.00000204 00000+0 00000+0 0 9997 2 49330 10.0174 44.4291 0077890 36.3616 356.8843 1.00283117 11040
UTC large
Height (km)
Speed (km/s)
/
Latitude / Longitude
Inclination (degrees)
Orbital Period (minutes)
Azimuth
Elevation
Range (km)
Doppler Factor

Next 0 passes for location: London (51.5072 / 0.1276)

Sorry there are no passes over London.